When you browse on this site, cookies collect data to enhance your experience and personalize the content and advertising you see.
Visit our Privacy Policy to learn more. By continuing to use the site, you agree to this use of cookies and data.
  • In Hungary
  • List of Countries
  • For 7 days
  • Water Temperature
  • Weather Map
  • News
  • Weather Widgets
  • user-avatar
    Login

    Hourly Weather Bolshoe Malinskoe

    Today, 15 September, Sunday

    Time Temperature Precipitation Wind Pressure Humidity
    00:00 +5°C° 0 mm 3 mps 746 mmHg 91%
    01:00 +5°C° 0 mm 3 mps 746 mmHg 93%
    02:00 +5°C° 0 mm 3 mps 746 mmHg 95%
    03:00 +4°C° 0 mm 3 mps 746 mmHg 95%
    04:00 +4°C° 0 mm 3 mps 746 mmHg 96%
    05:00 +4°C° 0 mm 3 mps 746 mmHg 97%
    06:00 +5°C° 0 mm 3 mps 746 mmHg 92%
    07:00 +7°C° 0 mm 3 mps 746 mmHg 88%
    08:00 +8°C° 0 mm 3 mps 746 mmHg 83%
    09:00 +9°C° 0 mm 3 mps 746 mmHg 79%
    10:00 +10°C° 0 mm 4 mps 745 mmHg 75%
    11:00 +10°C° 0 mm 4 mps 745 mmHg 72%
    12:00 +11°C° 0 mm 4 mps 744 mmHg 70%
    13:00 +11°C° 0 mm 4 mps 744 mmHg 69%
    14:00 +11°C° 0 mm 4 mps 743 mmHg 67%
    15:00 +10°C° 0.3 mm 4 mps 742 mmHg 74%
    16:00 +8°C° 0.3 mm 5 mps 741 mmHg 80%
    17:00 +7°C° 0.3 mm 5 mps 739 mmHg 87%
    18:00 +7°C° 0.6 mm 5 mps 738 mmHg 89%
    19:00 +7°C° 0.6 mm 6 mps 737 mmHg 91%
    20:00 +7°C° 0.6 mm 6 mps 735 mmHg 94%
    21:00 +8°C° 0.9 mm 6 mps 734 mmHg 93%
    22:00 +8°C° 0.9 mm 6 mps 733 mmHg 93%
    23:00 +8°C° 0.9 mm 5 mps 733 mmHg 92%

    Tomorrow, 16 September, Monday

    Time Temperature Precipitation Wind Pressure Humidity
    00:00 +8°C° 0.1 mm 5 mps 732 mmHg 92%
    01:00 +8°C° 0.1 mm 5 mps 732 mmHg 93%
    02:00 +7°C° 0.1 mm 4 mps 732 mmHg 93%
    03:00 +7°C° 0.1 mm 4 mps 732 mmHg 93%
    04:00 +7°C° 0.1 mm 4 mps 731 mmHg 94%
    05:00 +7°C° 0.1 mm 4 mps 731 mmHg 94%
    06:00 +7°C° 0 mm 4 mps 731 mmHg 92%
    07:00 +7°C° 0 mm 4 mps 731 mmHg 91%
    08:00 +7°C° 0 mm 4 mps 731 mmHg 90%
    09:00 +8°C° 0.1 mm 4 mps 731 mmHg 88%
    10:00 +8°C° 0.1 mm 5 mps 731 mmHg 86%
    11:00 +9°C° 0.1 mm 5 mps 731 mmHg 84%
    12:00 +9°C° 0.1 mm 5 mps 730 mmHg 84%
    13:00 +9°C° 0.1 mm 5 mps 730 mmHg 84%
    14:00 +9°C° 0.1 mm 5 mps 730 mmHg 84%
    15:00 +9°C° 0.6 mm 5 mps 730 mmHg 86%
    16:00 +10°C° 0.6 mm 4 mps 730 mmHg 88%
    17:00 +10°C° 0.6 mm 4 mps 729 mmHg 89%
    18:00 +8°C° 0.1 mm 4 mps 729 mmHg 91%
    19:00 +8°C° 0.1 mm 4 mps 729 mmHg 92%
    20:00 +7°C° 0.1 mm 4 mps 729 mmHg 94%
    21:00 +7°C° 0 mm 4 mps 729 mmHg 94%
    22:00 +7°C° 0 mm 4 mps 729 mmHg 94%
    23:00 +7°C° 0 mm 4 mps 728 mmHg 94%

    Day after tomorrow, 17 September, Tuesday

    Time Temperature Precipitation Wind Pressure Humidity
    00:00 +7°C° 0.5 mm 4 mps 728 mmHg 93%
    01:00 +7°C° 0.5 mm 5 mps 728 mmHg 92%
    02:00 +7°C° 0.5 mm 5 mps 728 mmHg 92%
    03:00 +7°C° 0.9 mm 5 mps 728 mmHg 92%
    04:00 +7°C° 0.9 mm 5 mps 728 mmHg 93%
    05:00 +6°C° 0.9 mm 4 mps 728 mmHg 94%
    06:00 +7°C° 0.3 mm 4 mps 728 mmHg 93%
    07:00 +7°C° 0.3 mm 4 mps 728 mmHg 92%
    08:00 +7°C° 0.3 mm 5 mps 729 mmHg 91%
    09:00 +8°C° 0.1 mm 4 mps 729 mmHg 86%
    10:00 +8°C° 0.1 mm 4 mps 730 mmHg 81%
    11:00 +10°C° 0.1 mm 4 mps 730 mmHg 76%
    12:00 +10°C° 0.3 mm 4 mps 730 mmHg 77%
    13:00 +10°C° 0.3 mm 4 mps 731 mmHg 77%
    14:00 +10°C° 0.3 mm 4 mps 731 mmHg 78%
    15:00 +10°C° 0.2 mm 4 mps 731 mmHg 81%
    16:00 +9°C° 0.2 mm 3 mps 731 mmHg 84%
    17:00 +8°C° 0.2 mm 2 mps 731 mmHg 87%
    18:00 +8°C° 0.1 mm 2 mps 731 mmHg 90%
    19:00 +7°C° 0.1 mm 2 mps 732 mmHg 92%
    20:00 +7°C° 0.1 mm 2 mps 732 mmHg 94%
    21:00 +7°C° 0.1 mm 2 mps 732 mmHg 94%
    22:00 +8°C° 0.1 mm 1 mps 732 mmHg 94%
    23:00 +7°C° 0.1 mm 1 mps 732 mmHg 95%

    18 September, Wednesday

    Time Temperature Precipitation Wind Pressure Humidity
    00:00 +7°C° 0 mm 1 mps 732 mmHg 95%
    01:00 +7°C° 0 mm 1 mps 732 mmHg 96%
    02:00 +7°C° 0 mm 1 mps 732 mmHg 96%
    03:00 +6°C° 0 mm 1 mps 732 mmHg 97%
    04:00 +6°C° 0 mm 1 mps 732 mmHg 97%
    05:00 +5°C° 0 mm 2 mps 732 mmHg 97%
    06:00 +5°C° 0 mm 2 mps 733 mmHg 95%
    07:00 +6°C° 0 mm 2 mps 733 mmHg 93%
    08:00 +6°C° 0 mm 2 mps 733 mmHg 91%
    09:00 +7°C° 0.1 mm 2 mps 734 mmHg 85%
    10:00 +8°C° 0.1 mm 3 mps 734 mmHg 79%
    11:00 +9°C° 0.1 mm 3 mps 734 mmHg 74%
    12:00 +10°C° 0.2 mm 3 mps 735 mmHg 72%
    13:00 +10°C° 0.2 mm 3 mps 735 mmHg 70%
    14:00 +10°C° 0.2 mm 3 mps 735 mmHg 67%
    15:00 +9°C° 0.1 mm 3 mps 736 mmHg 72%
    16:00 +8°C° 0.1 mm 3 mps 736 mmHg 76%
    17:00 +8°C° 0.1 mm 2 mps 736 mmHg 81%
    18:00 +7°C° 0 mm 2 mps 737 mmHg 84%
    19:00 +6°C° 0 mm 2 mps 738 mmHg 88%
    20:00 +5°C° 0 mm 2 mps 738 mmHg 91%
    21:00 +4°C° 0 mm 2 mps 739 mmHg 92%
    22:00 +3°C° 0 mm 2 mps 739 mmHg 93%
    23:00 +3°C° 0 mm 2 mps 740 mmHg 94%

    19 September, Thursday

    Time Temperature Precipitation Wind Pressure Humidity
    00:00 +2°C° 0 mm 2 mps 740 mmHg 94%
    01:00 +2°C° 0 mm 2 mps 740 mmHg 94%
    02:00 +2°C° 0 mm 2 mps 741 mmHg 95%
    03:00 +2°C° 0 mm 2 mps 741 mmHg 95%
    04:00 +1°C° 0 mm 2 mps 741 mmHg 95%
    05:00 +1°C° 0 mm 2 mps 742 mmHg 95%
    06:00 +2°C° 0 mm 2 mps 742 mmHg 90%
    07:00 +3°C° 0 mm 2 mps 742 mmHg 84%
    08:00 +4°C° 0 mm 2 mps 743 mmHg 79%
    09:00 +5°C° 0 mm 2 mps 743 mmHg 70%
    10:00 +6°C° 0 mm 2 mps 743 mmHg 62%
    11:00 +8°C° 0 mm 3 mps 744 mmHg 54%
    12:00 +8°C° 0 mm 3 mps 744 mmHg 52%
    13:00 +8°C° 0 mm 3 mps 744 mmHg 51%
    14:00 +9°C° 0 mm 3 mps 744 mmHg 50%
    15:00 +8°C° 0.1 mm 3 mps 744 mmHg 58%
    16:00 +7°C° 0.1 mm 2 mps 744 mmHg 67%
    17:00 +6°C° 0.1 mm 2 mps 744 mmHg 75%
    18:00 +5°C° 0 mm 2 mps 744 mmHg 79%
    19:00 +4°C° 0 mm 2 mps 744 mmHg 83%
    20:00 +3°C° 0 mm 2 mps 745 mmHg 87%
    21:00 +2°C° 0 mm 2 mps 745 mmHg 89%
    22:00 +2°C° 0 mm 2 mps 745 mmHg 91%
    23:00 +1°C° 0 mm 2 mps 745 mmHg 92%

    20 September, Friday

    Time Temperature Precipitation Wind Pressure Humidity
    00:00 +1°C° 0 mm 2 mps 745 mmHg 94%
    01:00 -1°C° 0 mm 2 mps 746 mmHg 95%
    02:00 -1°C° 0 mm 2 mps 746 mmHg 96%
    03:00 -1°C° 0 mm 2 mps 746 mmHg 96%
    04:00 -1°C° 0 mm 2 mps 746 mmHg 96%
    05:00 -1°C° 0 mm 3 mps 746 mmHg 96%
    06:00 0°C° 0 mm 3 mps 746 mmHg 92%
    07:00 +1°C° 0 mm 3 mps 746 mmHg 88%
    08:00 +1°C° 0 mm 4 mps 746 mmHg 85%
    09:00 +1°C° 0 mm 4 mps 747 mmHg 81%
    10:00 +3°C° 0 mm 4 mps 747 mmHg 78%
    11:00 +4°C° 0 mm 4 mps 747 mmHg 74%
    12:00 +4°C° 0 mm 4 mps 747 mmHg 73%
    13:00 +4°C° 0 mm 4 mps 747 mmHg 71%
    14:00 +5°C° 0 mm 4 mps 747 mmHg 70%
    15:00 +4°C° 0 mm 3 mps 747 mmHg 72%
    16:00 +4°C° 0 mm 3 mps 747 mmHg 75%
    17:00 +5°C° 0 mm 2 mps 747 mmHg 77%
    18:00 +4°C° 0 mm 2 mps 747 mmHg 81%
    19:00 +3°C° 0 mm 2 mps 747 mmHg 86%
    20:00 +2°C° 0 mm 2 mps 747 mmHg 90%
    21:00 +1°C° 0 mm 2 mps 747 mmHg 91%
    22:00 -1°C° 0 mm 2 mps 747 mmHg 91%
    23:00 -1°C° 0 mm 2 mps 746 mmHg 92%
    Show more